SA3PJN-WX Weather Reports


time (UTC)temp
F
wind
direction
speed
knots
gust
knots
rain 1hr
in
rain 24hr
in
rain mn
in
humidity
%
barometer
mb
20260504173950 39 62 5.2 22.6 0.00 0.00 0.00 58 956.0
20260504173450 39 160 4.3 18.2 0.00 0.00 0.00 56 956.0
20260504172950 40 111 5.2 15.6 0.00 0.00 0.00 56 956.0
20260504172450 40 128 5.2 15.6 0.00 0.00 0.00 56 956.0
20260504171920 40 88 5.2 17.4 0.00 0.00 0.00 56 956.0
20260504171420 40 135 5.2 17.4 0.00 0.00 0.00 55 956.0
20260504170920 40 63 4.3 14.8 0.00 0.00 0.00 54 956.0
20260504170420 40 63 5.2 19.1 0.00 0.00 0.00 54 956.0
20260504160250 42 66 4.3 13.0 0.00 0.00 0.00 51 956.0
20260504151119 43 125 7.0 23.5 0.00 0.00 0.00 52 956.0
20260504150619 44 109 7.0 23.5 0.00 0.00 0.00 51 956.0
20260504140849 43 98 4.3 18.2 0.00 0.00 0.00 55 956.0
20260504140319 42 135 4.3 18.2 0.00 0.00 0.00 56 956.0
20260504130749 44 80 3.5 8.7 0.00 0.00 0.00 57 956.4
20260504130249 45 357 3.5 9.6 0.00 0.00 0.00 54 956.4
20260504120248 42 164 7.0 26.1 0.00 0.00 0.00 53 956.2
20260504110718 44 25 4.3 18.2 0.00 0.00 0.00 50 956.0
20260504110218 44 69 4.3 18.2 0.00 0.00 0.00 51 956.0
20260504100517 45 150 5.2 16.5 0.00 0.00 0.00 60 956.1
20260504081717 50 162 3.5 11.3 0.00 0.00 0.00 47 955.4
20260504081217 53 97 2.6 11.3 0.00 0.00 0.00 46 955.7
20260504080717 53 46 2.6 8.7 0.00 0.00 0.00 46 955.8
20260504080217 55 80 1.7 7.8 0.00 0.00 0.00 48 955.8
20260504070146 49 104 1.7 4.3 0.00 0.00 0.00 59 955.8
20260504050716 42 331 0.9 4.3 0.00 0.00 0.00 66 955.6
20260504050146 41 37 1.7 6.1 0.00 0.00 0.00 69 955.4
20260504045646 39 55 3.5 6.1 0.00 0.00 0.00 71 955.4
20260504045146 38 56 3.5 6.1 0.00 0.00 0.00 70 955.2
20260504044646 39 68 3.5 6.1 0.00 0.00 0.00 69 955.3
20260504044146 39 44 3.5 7.0 0.00 0.00 0.00 69 955.4
20260504043616 39 42 3.5 7.0 0.00 0.00 0.00 70 955.5
20260504043046 38 50 3.5 5.2 0.00 0.00 0.00 70 955.6
20260504042546 38 57 2.6 5.2 0.00 0.00 0.00 71 955.6
20260504042046 37 65 3.5 6.1 0.00 0.00 0.00 73 956.0
20260504041546 35 72 2.6 6.1 0.00 0.00 0.00 75 956.0
20260504041046 35 68 2.6 5.2 0.00 0.00 0.00 75 956.0
20260504040546 35 55 2.6 4.3 0.00 0.00 0.00 75 956.0
20260504040046 36 73 2.6 4.3 0.00 0.00 0.00 74 956.0
20260504035546 35 54 1.7 4.3 0.00 0.00 0.00 75 956.0
20260504035046 35 57 1.7 3.5 0.00 0.00 0.00 75 956.0
20260504034546 35 67 1.7 3.5 0.00 0.00 0.00 75 956.0
20260504034046 35 62 1.7 3.5 0.00 0.00 0.00 75 956.0
20260504033546 35 68 1.7 5.2 0.00 0.00 0.00 76 956.0
20260504033046 34 67 1.7 5.2 0.00 0.00 0.00 77 956.0
20260504032546 34 65 2.6 5.2 0.00 0.00 0.00 77 956.0
20260504032015 34 83 2.6 5.2 0.00 0.00 0.00 77 956.0
20260504031515 34 63 2.6 5.2 0.00 0.00 0.00 77 956.2
20260504031016 34 59 2.6 5.2 0.00 0.00 0.00 78 956.1
20260504030515 34 65 2.6 5.2 0.00 0.00 0.00 78 956.3
20260504030015 34 33 1.7 5.2 0.00 0.00 0.00 78 956.4
20260504025446 34 23 2.6 5.2 0.00 0.00 0.00 77 956.5
20260504024945 34 14 3.5 5.2 0.00 0.00 0.00 77 956.5
20260504024445 34 22 3.5 5.2 0.00 0.00 0.00 76 956.5
20260504023945 34 15 2.6 5.2 0.00 0.00 0.00 77 956.6
20260504023445 34 285 1.7 3.5 0.00 0.00 0.00 76 956.5
20260504022945 34 262 1.7 3.5 0.00 0.00 0.00 73 957.0
20260504022445 34 310 2.6 4.3 0.00 0.00 0.00 73 957.0
20260504021945 35 309 2.6 5.2 0.00 0.00 0.00 72 957.0
20260504021445 35 29 2.6 5.2 0.00 0.00 0.00 72 957.0
20260504020945 35 60 1.7 4.3 0.00 0.00 0.00 71 957.0
20260504020445 35 4 0.9 3.5 0.00 0.00 0.00 71 957.1
20260504015945 35 278 0.9 2.6 0.00 0.00 0.00 70 957.2
20260504015445 35 336 1.7 3.5 0.00 0.00 0.00 70 957.2
20260504014915 35 19 1.7 3.5 0.00 0.00 0.00 70 957.3
20260504014415 35 7 1.7 3.5 0.00 0.00 0.00 69 957.3
20260504013845 35 6 1.7 4.3 0.00 0.00 0.00 69 957.3
20260504013345 35 12 1.7 4.3 0.00 0.00 0.00 69 957.4
20260504012845 35 18 0.9 4.3 0.00 0.00 0.00 68 957.5
20260504012315 36 38 0.9 2.6 0.00 0.00 0.00 67 957.4
20260504011815 36 83 1.7 2.6 0.00 0.00 0.00 67 957.6
20260504011315 36 40 1.7 3.5 0.00 0.00 0.00 68 957.6
20260504010815 36 22 1.7 3.5 0.00 0.00 0.00 68 957.6
20260504010315 36 335 1.7 3.5 0.00 0.00 0.00 68 957.5
20260504005815 36 318 1.7 3.5 0.00 0.00 0.00 68 958.0
20260504005315 35 279 1.7 4.3 0.00 0.00 0.00 68 958.0
20260504004815 35 273 1.7 5.2 0.00 0.00 0.00 69 957.6
20260504004315 35 257 2.6 5.2 0.00 0.00 0.00 70 958.0
20260504003815 35 299 2.6 5.2 0.00 0.00 0.00 69 958.0
20260504003245 35 291 3.5 5.2 0.00 0.00 0.00 69 958.0
20260504002745 35 293 3.5 5.2 0.00 0.00 0.00 69 958.0
20260504002245 35 294 3.5 5.2 0.00 0.00 0.00 69 958.0
20260504001744 35 304 3.5 6.1 0.00 0.00 0.00 68 958.1
20260504001214 35 313 3.5 7.8 0.00 0.00 0.00 68 958.2
20260504000645 35 285 3.5 7.8 0.00 0.00 0.00 68 958.2
20260504000144 35 294 3.5 7.0 0.00 0.00 0.00 68 958.1
20260503235644 35 282 3.5 7.0 0.00 0.00 0.00 68 958.2
20260503235144 36 293 3.5 7.0 0.00 0.00 0.00 67 958.4
20260503234644 35 288 3.5 6.1 0.00 0.00 0.00 68 958.4
20260503234144 35 290 3.5 6.1 0.00 0.00 0.00 68 958.4
20260503233614 35 291 3.5 6.1 0.00 0.00 0.00 67 958.6
20260503233114 36 258 4.3 7.0 0.00 0.00 0.00 68 959.0
20260503232614 36 290 4.3 7.0 0.00 0.00 0.00 68 959.0
20260503232114 36 265 4.3 7.0 0.00 0.00 0.00 67 959.0
20260503231614 36 285 5.2 9.6 0.00 0.00 0.00 67 959.0
20260503231044 36 274 5.2 9.6 0.00 0.00 0.00 67 959.0
20260503230544 36 259 5.2 8.7 0.00 0.00 0.00 67 959.0
20260503230044 36 281 4.3 8.7 0.00 0.00 0.00 67 959.0
20260503225514 36 272 5.2 9.6 0.00 0.00 0.00 66 959.0
20260503224944 37 291 6.1 9.6 0.00 0.00 0.00 66 959.1
20260503224444 37 292 6.1 9.6 0.00 0.00 0.00 65 959.1
20260503223944 37 275 5.2 7.8 0.00 0.00 0.00 65 959.2
20260503223444 37 296 5.2 8.7 0.00 0.00 0.00 66 959.4
20260503222944 37 266 5.2 8.7 0.00 0.00 0.00 66 959.4
20260503222414 37 249 5.2 8.7 0.00 0.00 0.00 65 959.5
20260503221914 37 281 5.2 9.6 0.00 0.00 0.00 65 959.5
20260503221414 37 284 5.2 9.6 0.00 0.00 0.00 64 959.5
20260503220914 37 262 4.3 9.6 0.00 0.00 0.00 64 960.0
20260503220344 37 260 5.2 10.4 0.00 0.00 0.00 64 960.1
20260503215844 37 251 5.2 10.4 0.00 0.00 0.00 64 960.0
20260503215344 38 251 5.2 7.8 0.00 0.00 0.00 63 960.0
20260503214844 38 250 4.3 7.8 0.00 0.00 0.00 63 960.1
20260503214344 38 247 4.3 7.8 0.00 0.00 0.00 63 960.1
20260503213844 38 242 4.3 9.6 0.00 0.00 0.00 62 960.2
20260503213344 38 272 4.3 9.6 0.00 0.00 0.00 62 960.2
20260503212844 38 288 4.3 8.7 0.00 0.00 0.00 62 960.1
20260503212344 38 294 4.3 7.0 0.00 0.00 0.00 63 960.2
20260503211844 38 247 4.3 7.0 0.00 0.00 0.00 63 960.2
20260503211314 38 283 4.3 7.0 0.00 0.00 0.00 61 960.3
20260503210814 38 274 3.5 6.1 0.00 0.00 0.00 62 960.3
20260503210244 38 291 3.5 7.0 0.00 0.00 0.00 61 960.4
20260503205744 38 310 3.5 7.0 0.00 0.00 0.00 61 960.3
20260503205243 38 299 3.5 6.1 0.00 0.00 0.00 61 960.4
20260503204743 38 296 3.5 6.1 0.00 0.00 0.00 62 960.4
20260503204243 38 291 3.5 6.1 0.00 0.00 0.00 61 960.5
20260503203743 38 317 3.5 6.1 0.00 0.00 0.00 60 960.6
20260503203243 39 297 3.5 6.1 0.00 0.00 0.00 60 961.0
20260503202743 39 284 3.5 6.1 0.00 0.00 0.00 61 961.0
20260503202243 39 283 3.5 6.1 0.00 0.00 0.00 60 961.0
20260503201743 39 342 3.5 7.0 0.00 0.00 0.00 60 961.0
20260503201243 39 294 3.5 7.0 0.00 0.00 0.00 60 961.0
20260503200743 39 283 3.5 5.2 0.00 0.00 0.00 60 961.1
20260503200243 39 286 3.5 5.2 0.00 0.00 0.00 59 961.2
20260503195743 39 285 2.6 5.2 0.00 0.00 0.00 60 961.2
20260503195243 39 267 2.6 5.2 0.00 0.00 0.00 60 961.3
20260503194743 40 284 2.6 5.2 0.00 0.00 0.00 60 961.5
20260503194243 40 270 2.6 5.2 0.00 0.00 0.00 58 961.5
20260503193713 40 317 2.6 7.0 0.00 0.00 0.00 57 961.5
20260503193213 40 315 2.6 7.0 0.00 0.00 0.00 58 961.5
20260503192713 40 323 2.6 7.8 0.00 0.00 0.00 57 961.5
20260503192143 40 295 2.6 7.8 0.00 0.00 0.00 57 961.5
20260503191643 40 306 3.5 7.8 0.00 0.00 0.00 56 961.4
20260503191143 40 344 2.6 7.0 0.00 0.00 0.00 56 961.6
20260503190643 40 26 2.6 7.0 0.00 0.00 0.00 56 961.6
20260503190143 41 14 2.6 6.1 0.00 0.00 0.00 55 962.0
20260503185643 41 278 3.5 6.1 0.00 0.00 0.00 55 962.0
20260503185143 41 293 2.6 6.1 0.00 0.00 0.00 55 962.0
20260503184643 41 15 2.6 6.1 0.00 0.00 0.00 54 962.0
20260503184143 42 255 2.6 6.1 0.00 0.00 0.00 53 962.0
20260503183643 42 22 1.7 6.1 0.00 0.00 0.00 51 962.0
20260503183143 42 315 2.6 6.1 0.00 0.00 0.00 50 962.0
20260503182643 42 45 2.6 6.1 0.00 0.00 0.00 50 962.0
20260503182143 42 315 2.6 6.1 0.00 0.00 0.00 49 962.0
20260503181643 42 256 3.5 7.0 0.00 0.00 0.00 50 962.0
20260503181143 42 16 3.5 7.0 0.00 0.00 0.00 48 962.0
20260503180642 42 21 2.6 7.0 0.00 0.00 0.00 50 962.0
20260503180142 42 277 2.6 7.0 0.00 0.00 0.00 50 962.0
20260503175612 42 295 4.3 8.7 0.00 0.00 0.00 50 962.2
20260503175112 42 317 4.3 8.7 0.00 0.00 0.00 51 962.0
20260503174612 42 20 4.3 8.7 0.00 0.00 0.00 49 962.2